GSAT-14

Last updated on Sun Jun 21 2026 00:03:06 GMT+0000 (Coordinated Universal Time)

1 39498U 14001A 26171.40667204 -.00000081 00000+0 00000+0 0 9993 2 39498 0.0443 96.3297 0000794 170.7037 221.9650 1.00271396 45415
UTC large
Height (km)
Speed (km/s)
/
Latitude / Longitude
Inclination (degrees)
Orbital Period (minutes)
Azimuth
Elevation
Range (km)
Doppler Factor

Next 0 passes for location: London (51.5072 / 0.1276)

No passes found over London.
GSAT-14